SIRIUSSAT-1 (43595 NORAD) Tracking and Keplerian Element Data

This shows tracking and keplerian element data for the satellite.

Feedback or suggestion? Click here.




ElementValue
Catalog43595
NameSIRIUSSAT-1
Epoch Orbit3891
Epoch Day112.51655534
Epoch Year2019
RAAN271.6952
Inclination51.6367
Eccentricity0.0003553
Argument of Perigee252.7188
Mean Anonmoly107.3416
Mean Motion15.59684939
Decay Rate0.0001332
L11 43595U 98067PG 19112.51655534 .00013320 00000-0 16957-3 0 9994
L22 43595 51.6367 271.6952 0003553 252.7188 107.3416 15.59684939 38919

Live tracking and technical data element details for SIRIUSSAT-1 (NORAD 43595). SIRIUSSAT-1 can be tracked NOW for your location showing map with azimuth and elevation plus other details from your city location.

Track the satellite on the map from your city or location and see movement details for azimuth, elevation, latitude, longitude, range, height, and movement on the map or in text.







IsCatalogInMostPopularTable: catalog: 43595, numindb: 110
Update: records affected: 1



GetName: 43595 SIRIUSSAT-1

Hit Count: updated at: Tue, 23 Apr 2019 20:49:38 GMT